Terug naar catalogus

QIANFAN-38

ActiefCommunicatiePO
NORAD 62239·PAYLOAD·🇨🇳 China

Gelanceerd Dec 5, 2024 vanaf Taiyuan Satellite Launch Center

Loading…

Volgende Passages (komende 24 uur)

TLE

VersSource: Space-Track

Epoch: Sep 14, 2026, 21:38 UTC

1 62239U 24232C   26257.90173609  .00000108  00000-0  14777-3 0  9990
2 62239  89.0159  13.5311 0016446 116.0330 244.2517 13.51027924136510

Volg QIANFAN-38 in realtime met AllMySat

Download on the App Store